Location: Newark
(49.3808°N, 3.1844°E)
Time: 12:29:44
(UTC+00:00)

Vanguard 1 Rocket - Pass Details

Date: 15 November 2019
Orbit: 650 x 4226 km, 34.3° (Epoch: 15 December)

Event Time Altitude Azimuth Distance (km) Brightness Sun altitude
Rises 04:08:04 0° 212° (SSW) 2,954 - -27.4°
Exits shadow 04:11:43 10° 179° (S) 2,181 9.3 -26.8°
Reaches altitude 10° 04:11:46 10° 178° (S) 2,176 9.3 -26.8°
Maximum altitude 04:13:30 12° 156° (SSE) 2,170 9.6 -26.5°
Drops below altitude 10° 04:15:24 10° 135° (SE) 2,453 10.1 -26.2°
Sets 04:20:24 0° 105° (ESE) 3,949 11.9 -25.4°
